{"data":{"norad_id":64724,"intl_designator":"2025-144A","name":"STARLINK-34393","alt_names":[],"object_type":"PAYLOAD","status":"ACTIVE","operator":null,"country":"US","launch_date":"2025-07-02","launch_site_code":"AFETR","launch_vehicle":null,"mission":null,"orbit_class":"UNKNOWN","rcs_meters":null,"size_class":null,"mass_kg":null,"dimensions":null,"purposes":["comms"],"wikipedia_slug":null,"has_3d_model":false,"image_url":null,"decayed_at":null,"tle_current":{"epoch":"2026-09-20T11:27:06.552288Z","epoch_age_seconds":129952,"freshness":"FRESH","line1":"1 64724U 25144A   26263.47715917  .00015926  00000+0  48147-3 0  9998","line2":"2 64724  53.1614 353.5203 0001704 106.0739 254.0452 15.34401722 69583","mean_motion":15.34401722,"eccentricity":0.0001704,"inclination_deg":53.1614,"raan_deg":353.5203,"arg_perigee_deg":106.0739,"mean_anomaly_deg":254.0452,"bstar":0.00048147,"rev_number":6958,"period_min":93.847652759608,"perigee_km":461.5324437602,"apogee_km":463.8638003698,"semimajor_km":6840.835122065,"source":"CELESTRAK","updated_at":"2026-09-21T09:00:35.408533Z"}}}